{"data":{"norad_id":58155,"intl_designator":"2023-166F","name":"STARLINK-30804","alt_names":[],"object_type":"PAYLOAD","status":"ACTIVE","operator":null,"country":"US","launch_date":"2023-10-29","launch_site_code":"AFWTR","launch_vehicle":null,"mission":null,"orbit_class":"UNKNOWN","rcs_meters":null,"size_class":null,"mass_kg":null,"dimensions":null,"purposes":["comms"],"wikipedia_slug":null,"has_3d_model":false,"image_url":null,"decayed_at":null,"tle_current":{"epoch":"2026-05-25T04:58:20.708832Z","epoch_age_seconds":64047,"freshness":"FRESH","line1":"1 58155U 23166F   26145.20718413  .00003024  00000+0  10920-3 0  9999","line2":"2 58155  53.1607 224.2533 0001161 103.7540 256.3591 15.31687872144893","mean_motion":15.31687872,"eccentricity":0.0001161,"inclination_deg":53.1607,"raan_deg":224.2533,"arg_perigee_deg":103.754,"mean_anomaly_deg":256.3591,"bstar":0.0001092,"rev_number":14489,"period_min":94.013932363369,"perigee_km":469.98098958458,"apogee_km":471.57130721764,"semimajor_km":6848.9131484011,"source":"CELESTRAK","updated_at":"2026-05-25T13:38:18.537012Z"}}}